Regional Weather Roundup
Issued by NWS Newport/Morehead, NC

Current Version | Previous Version | Text Only | Print | Product List | Glossary On
Versions: 1 2 3 4 5 6 7 8 9 10 11 12 13 14 15 16 17 18 19 20 21 22 23 24 25 26 27 28 29 30 31 32 33 34 35 36 37 38 39 40 41 42 43 44 45 46 47 48 49 50
000
ASUS42 KMHX 010513
RWRMHX
WEATHER ROUNDUP FOR EASTERN NORTH CAROLINA
NATIONAL WEATHER SERVICE NEWPORT/MOREHEAD CITY NC
100 AM EDT WED JUL 01 2015

NOTE: "FAIR" INDICATES FEW OR NO CLOUDS BELOW 12,000 FEET
WITH NO SIGNIFICANT WEATHER AND/OR OBSTRUCTIONS TO VISIBILITY

NCZ015>017-031-032-045>047-102-103-010600-
NORTH COAST

CITY           SKY/WX    TMP DP  RH WIND       PRES   REMARKS
EDENTON        CLOUDY    73  67  80 CALM      29.92F
ELIZABETH CITY NOT AVBL
KITTY HAWK     MOCLDY    80  68  67 SW9G16    29.91F
MANTEO         MOCLDY    80  69  70 SW13      29.92F

$$

NCZ045>047-081-094-103-104-010600-
CENTRAL COAST

CITY           SKY/WX    TMP DP  RH WIND       PRES   REMARKS
FRISCO         NOT AVBL
SWANQUARTER      N/A     81 N/A N/A SW9G20    29.88F

$$

NCZ095-097-098-100-101-010600-
SOUTHERN COAST

CITY           SKY/WX    TMP DP  RH WIND       PRES   REMARKS
BEAUFORT       MOCLDY    80  75  84 SW15G24   29.95F
CEDAR ISLAND     N/A     79 N/A N/A S7G16     29.97F
JACKSONVILLE   CLOUDY    78  71  79 S7        29.93F
PINEY ISLAND   CLOUDY   N/A N/A N/A S10       29.94F
WILMINGTON     NOT AVBL


$$

NCZ011>013-027>030-043-044-078>080-089-090>093-098-010600-
COASTAL PLAIN

CITY           SKY/WX    TMP DP  RH WIND       PRES   REMARKS
AHOSKIE        CLOUDY    68  67  97 S6        29.92S
CLINTON        CLOUDY    70  70  99 CALM      29.96R
ELIZABETHTOWN  MOCLDY    71  70  97 S6        29.96F
GOLDSBORO      CLOUDY    71  69  95 S5        29.92R
GREENVILLE     CLOUDY    77  68  73 SW3       29.94S
HAVELOCK       CLOUDY    79  71  76 S8        29.95F
KENANSVILLE    CLOUDY    72  66  79 SW3       29.96R
KINSTON        CLOUDY    75  66  73 SW6       29.94R
NEW BERN       NOT AVBL
RICHLANDS      CLOUDY    75  63  64 W5        29.95R
ROCKY MOUNT    NOT AVBL
WASHINGTON     CLOUDY    76  66  69 CALM      29.93S
WHITEVILLE     PTCLDY    71  69  93 CALM      29.97S

$$

AMZ130-135-150-152-154-156-158-170-250-252-270-ANZ085-086-088-633-658-670-010600-
MARINE OBSERVATIONS

STATION/POSITION TIME  TEMP    WIND        PRES    WAVE   SWELL
                       AIR SEA DIR/SP/G            HT/PER HT/PER
                 (UTC) (F)     (DEG/KT/KT) (MB)    (FT/S) (FT/S)
CHESAPEAKE LIGHT 0500   76     240/ 11/ 12 1012.5
64 E VA BEACH    0450   78 76  210/ 16/ 17 1012.1    4/ 6   2/ 8
DUCK             0400   81 69  220/ 16/ 22 1012.2
2 E DUCK         0411      72                N/A     2/ 8
OREGON INLET     0400   81 83  220/ 18/ 22 1013.6
13E OREGON INLT  0500      73                N/A     4/ 6
HATTERAS CG      0400   81 82  220/ 13/ 22 1014.5
DIAMOND BUOY     0450   82 82  230/ 23/ 29 1014.3    6/ 6
CAPE LOOKOUT     0500   80     210/ 12/ 16 1014.3
BEAUFORT LAB     0400   81 81  230/  6/ 13 1014.3
30 SE NEW RVR IN NOT AVBL
27 SE WRIGHTSVLE 0400      80  230/ 16/ 19   N/A
5 SE WRIGHTSVLE  0408   81 79  210/ 19/ 23 1014.3
225 S CAPE HAT   0450   81 80  220/ 16/ 17 1018.6    6/ 8   3/ 8
41 SE CHARLESTON 0450   81 82  240/ 16/ 17 1015.4    4/ 5   2/ 9

$$



USA.gov is the U.S. government's official web portal to all federal, state and local government web resources and services.